owner,sensor,date,latitude,longitude,vertical_datum,wind_speed,wind_to_direction,wind_speed_of_gust,qcFlag 
TCOON,ioos:station:TCOON:068:1,2016-09-01T00:00:00Z,27.2970,-97.4049,0.0,99.0,-9999.0,99.0,'11144222,99999999,11144222' 
TCOON,ioos:station:TCOON:068:1,2016-09-01T00:06:00Z,27.2970,-97.4049,0.0,99.0,-9999.0,99.0,'11144222,99999999,11144222' 
TCOON,ioos:station:TCOON:068:1,2016-09-01T00:12:00Z,27.2970,-97.4049,0.0,99.0,-9999.0,99.0,'11144222,99999999,11144222' 
TCOON,ioos:station:TCOON:068:1,2016-09-01T00:18:00Z,27.2970,-97.4049,0.0,5.0,55.0,5.9,'1111122,1111122,1111122' 
TCOON,ioos:station:TCOON:068:1,2016-09-01T00:24:00Z,27.2970,-97.4049,0.0,4.4,51.0,5.4,'11111222,11111222,11111222' 
TCOON,ioos:station:TCOON:068:1,2016-09-01T00:30:00Z,27.2970,-97.4049,0.0,4.4,47.0,5.4,'11111222,11111222,11111222' 
TCOON,ioos:station:TCOON:068:1,2016-09-01T00:36:00Z,27.2970,-97.4049,0.0,4.1,40.0,5.1,'11111222,11111222,11111222' 
TCOON,ioos:station:TCOON:068:1,2016-09-01T00:42:00Z,27.2970,-97.4049,0.0,3.8,38.0,4.6,'11111222,11111222,11111222' 
TCOON,ioos:station:TCOON:068:1,2016-09-01T00:48:00Z,27.2970,-97.4049,0.0,3.0,35.0,4.0,'11111222,11111222,11111222' 
TCOON,ioos:station:TCOON:068:1,2016-09-01T00:54:00Z,27.2970,-97.4049,0.0,99.0,-9999.0,99.0,'11144222,99999999,11144222' 
TCOON,ioos:station:TCOON:068:1,2016-09-01T01:00:00Z,27.2970,-97.4049,0.0,99.0,-9999.0,99.0,'11144222,99999999,11144222' 
TCOON,ioos:station:TCOON:068:1,2016-09-01T01:06:00Z,27.2970,-97.4049,0.0,4.4,45.0,4.7,'11111222,11111222,11111222' 
TCOON,ioos:station:TCOON:068:1,2016-09-01T01:12:00Z,27.2970,-97.4049,0.0,3.7,38.0,4.8,'11111222,11111222,11111222' 
TCOON,ioos:station:TCOON:068:1,2016-09-01T01:18:00Z,27.2970,-97.4049,0.0,3.7,38.0,4.8,'1111122,1111122,1111122' 
TCOON,ioos:station:TCOON:068:1,2016-09-01T01:24:00Z,27.2970,-97.4049,0.0,3.7,40.0,4.5,'11111222,11111222,11111222' 
TCOON,ioos:station:TCOON:068:1,2016-09-01T01:30:00Z,27.2970,-97.4049,0.0,3.3,41.0,4.2,'11111222,11111222,11111222' 
TCOON,ioos:station:TCOON:068:1,2016-09-01T01:36:00Z,27.2970,-97.4049,0.0,99.0,-9999.0,99.0,'11144222,99999999,11144222' 
TCOON,ioos:station:TCOON:068:1,2016-09-01T01:42:00Z,27.2970,-97.4049,0.0,99.0,-9999.0,99.0,'11144222,99999999,11144222' 
TCOON,ioos:station:TCOON:068:1,2016-09-01T01:48:00Z,27.2970,-97.4049,0.0,99.0,-9999.0,99.0,'11144222,99999999,11144222' 
TCOON,ioos:station:TCOON:068:1,2016-09-01T01:54:00Z,27.2970,-97.4049,0.0,99.0,-9999.0,99.0,'11144222,99999999,11144222' 
TCOON,ioos:station:TCOON:068:1,2016-09-01T02:00:00Z,27.2970,-97.4049,0.0,99.0,-9999.0,99.0,'11144222,99999999,11144222' 
TCOON,ioos:station:TCOON:068:1,2016-09-01T02:06:00Z,27.2970,-97.4049,0.0,99.0,-9999.0,99.0,'11144222,99999999,11144222' 
TCOON,ioos:station:TCOON:068:1,2016-09-01T02:12:00Z,27.2970,-97.4049,0.0,99.0,-9999.0,99.0,'11144222,99999999,11144222' 
TCOON,ioos:station:TCOON:068:1,2016-09-01T02:18:00Z,27.2970,-97.4049,0.0,2.9,35.0,3.5,'1111122,1111122,1111122' 
TCOON,ioos:station:TCOON:068:1,2016-09-01T02:24:00Z,27.2970,-97.4049,0.0,2.6,53.0,3.1,'11111222,11111222,11111222' 
TCOON,ioos:station:TCOON:068:1,2016-09-01T02:30:00Z,27.2970,-97.4049,0.0,2.5,44.0,2.9,'11111222,11111222,11111222' 
TCOON,ioos:station:TCOON:068:1,2016-09-01T02:36:00Z,27.2970,-97.4049,0.0,3.3,46.0,3.6,'11111222,11111222,11111222' 
TCOON,ioos:station:TCOON:068:1,2016-09-01T02:42:00Z,27.2970,-97.4049,0.0,3.2,38.0,3.8,'11111222,11111222,11111222' 
TCOON,ioos:station:TCOON:068:1,2016-09-01T02:48:00Z,27.2970,-97.4049,0.0,2.9,34.0,3.9,'11111222,11111222,11111222' 
TCOON,ioos:station:TCOON:068:1,2016-09-01T02:54:00Z,27.2970,-97.4049,0.0,2.8,38.0,3.5,'11111222,11111222,11111222' 
TCOON,ioos:station:TCOON:068:1,2016-09-01T03:00:00Z,27.2970,-97.4049,0.0,2.6,35.0,3.2,'11111222,11111222,11111222' 
TCOON,ioos:station:TCOON:068:1,2016-09-01T03:06:00Z,27.2970,-97.4049,0.0,3.0,37.0,3.5,'11111222,11111222,11111222' 
TCOON,ioos:station:TCOON:068:1,2016-09-01T03:12:00Z,27.2970,-97.4049,0.0,2.9,33.0,3.4,'11111222,11111222,11111222' 
TCOON,ioos:station:TCOON:068:1,2016-09-01T03:18:00Z,27.2970,-97.4049,0.0,2.9,33.0,3.4,'1111122,1111122,1111122' 
TCOON,ioos:station:TCOON:068:1,2016-09-01T03:24:00Z,27.2970,-97.4049,0.0,2.6,35.0,3.5,'11111222,11111222,11111222' 
TCOON,ioos:station:TCOON:068:1,2016-09-01T03:30:00Z,27.2970,-97.4049,0.0,2.9,31.0,3.4,'11111222,11111222,11111222' 
TCOON,ioos:station:TCOON:068:1,2016-09-01T03:36:00Z,27.2970,-97.4049,0.0,2.6,27.0,3.5,'11111222,11111222,11111222' 
TCOON,ioos:station:TCOON:068:1,2016-09-01T03:42:00Z,27.2970,-97.4049,0.0,2.0,30.0,2.9,'11111222,11111222,11111222' 
TCOON,ioos:station:TCOON:068:1,2016-09-01T03:48:00Z,27.2970,-97.4049,0.0,2.3,35.0,2.7,'11111222,11111222,11111222' 
TCOON,ioos:station:TCOON:068:1,2016-09-01T03:54:00Z,27.2970,-97.4049,0.0,2.4,18.0,2.9,'11111222,11111222,11111222' 
TCOON,ioos:station:TCOON:068:1,2016-09-01T04:00:00Z,27.2970,-97.4049,0.0,3.3,339.0,3.6,'11111222,11111222,11111222' 
TCOON,ioos:station:TCOON:068:1,2016-09-01T04:06:00Z,27.2970,-97.4049,0.0,2.9,359.0,3.4,'11111222,11111222,11111222' 
TCOON,ioos:station:TCOON:068:1,2016-09-01T04:12:00Z,27.2970,-97.4049,0.0,2.7,5.0,3.0,'11111222,11111222,11111222' 
TCOON,ioos:station:TCOON:068:1,2016-09-01T04:18:00Z,27.2970,-97.4049,0.0,2.7,5.0,3.0,'1111122,1111122,1111122' 
TCOON,ioos:station:TCOON:068:1,2016-09-01T04:24:00Z,27.2970,-97.4049,0.0,2.6,6.0,3.3,'11111222,11111222,11111222' 
TCOON,ioos:station:TCOON:068:1,2016-09-01T04:30:00Z,27.2970,-97.4049,0.0,2.9,2.0,3.1,'11111222,11111222,11111222' 
TCOON,ioos:station:TCOON:068:1,2016-09-01T04:36:00Z,27.2970,-97.4049,0.0,2.7,4.0,3.2,'11111222,11111222,11111222' 
TCOON,ioos:station:TCOON:068:1,2016-09-01T04:42:00Z,27.2970,-97.4049,0.0,2.7,8.0,3.0,'11111222,11111222,11111222' 
TCOON,ioos:station:TCOON:068:1,2016-09-01T04:48:00Z,27.2970,-97.4049,0.0,2.1,14.0,2.6,'11111222,11111222,11111222' 
TCOON,ioos:station:TCOON:068:1,2016-09-01T04:54:00Z,27.2970,-97.4049,0.0,2.4,8.0,2.7,'11111222,11111222,11111222' 
TCOON,ioos:station:TCOON:068:1,2016-09-01T05:00:00Z,27.2970,-97.4049,0.0,3.0,358.0,3.3,'11111222,11111222,11111222' 
TCOON,ioos:station:TCOON:068:1,2016-09-01T05:06:00Z,27.2970,-97.4049,0.0,3.2,349.0,3.5,'11111222,11111222,11111222' 
TCOON,ioos:station:TCOON:068:1,2016-09-01T05:12:00Z,27.2970,-97.4049,0.0,3.9,338.0,4.2,'11111222,11111222,11111222' 
TCOON,ioos:station:TCOON:068:1,2016-09-01T05:18:00Z,27.2970,-97.4049,0.0,3.9,338.0,4.2,'1111122,1111122,1111122' 
TCOON,ioos:station:TCOON:068:1,2016-09-01T05:24:00Z,27.2970,-97.4049,0.0,3.1,347.0,4.0,'11111222,11111222,11111222' 
TCOON,ioos:station:TCOON:068:1,2016-09-01T05:30:00Z,27.2970,-97.4049,0.0,3.4,350.0,3.8,'11111222,11111222,11111222' 
TCOON,ioos:station:TCOON:068:1,2016-09-01T05:36:00Z,27.2970,-97.4049,0.0,3.2,348.0,3.7,'11111222,11111222,11111222' 
TCOON,ioos:station:TCOON:068:1,2016-09-01T05:42:00Z,27.2970,-97.4049,0.0,3.1,350.0,3.4,'11111222,11111222,11111222' 
TCOON,ioos:station:TCOON:068:1,2016-09-01T05:48:00Z,27.2970,-97.4049,0.0,2.9,349.0,3.4,'11111222,11111222,11111222' 
TCOON,ioos:station:TCOON:068:1,2016-09-01T05:54:00Z,27.2970,-97.4049,0.0,3.6,349.0,4.0,'11111222,11111222,11111222' 
TCOON,ioos:station:TCOON:068:1,2016-09-01T06:00:00Z,27.2970,-97.4049,0.0,3.4,348.0,4.3,'11111222,11111222,11111222' 
TCOON,ioos:station:TCOON:068:1,2016-09-01T06:06:00Z,27.2970,-97.4049,0.0,2.7,347.0,3.5,'11111222,11111222,11111222' 
TCOON,ioos:station:TCOON:068:1,2016-09-01T06:12:00Z,27.2970,-97.4049,0.0,2.7,348.0,3.1,'11111222,11111222,11111222' 
TCOON,ioos:station:TCOON:068:1,2016-09-01T06:18:00Z,27.2970,-97.4049,0.0,2.7,348.0,3.1,'1111122,1111122,1111122' 
TCOON,ioos:station:TCOON:068:1,2016-09-01T06:24:00Z,27.2970,-97.4049,0.0,3.4,339.0,3.6,'11111222,11111222,11111222' 
TCOON,ioos:station:TCOON:068:1,2016-09-01T06:30:00Z,27.2970,-97.4049,0.0,3.0,347.0,3.7,'11111222,11111222,11111222' 
TCOON,ioos:station:TCOON:068:1,2016-09-01T06:36:00Z,27.2970,-97.4049,0.0,3.5,345.0,4.0,'11111222,11111222,11111222' 
TCOON,ioos:station:TCOON:068:1,2016-09-01T06:42:00Z,27.2970,-97.4049,0.0,3.9,351.0,4.3,'11111222,11111222,11111222' 
TCOON,ioos:station:TCOON:068:1,2016-09-01T06:48:00Z,27.2970,-97.4049,0.0,3.3,359.0,4.0,'11111222,11111222,11111222' 
TCOON,ioos:station:TCOON:068:1,2016-09-01T06:54:00Z,27.2970,-97.4049,0.0,3.2,1.0,3.8,'11111222,11111222,11111222' 
TCOON,ioos:station:TCOON:068:1,2016-09-01T07:00:00Z,27.2970,-97.4049,0.0,2.9,1.0,3.4,'11111222,11111222,11111222' 
TCOON,ioos:station:TCOON:068:1,2016-09-01T07:06:00Z,27.2970,-97.4049,0.0,3.2,1.0,3.5,'11111222,11111222,11111222' 
TCOON,ioos:station:TCOON:068:1,2016-09-01T07:12:00Z,27.2970,-97.4049,0.0,3.3,359.0,3.6,'11111222,11111222,11111222' 
TCOON,ioos:station:TCOON:068:1,2016-09-01T07:18:00Z,27.2970,-97.4049,0.0,3.3,359.0,3.6,'1111122,1111122,1111122' 
TCOON,ioos:station:TCOON:068:1,2016-09-01T07:24:00Z,27.2970,-97.4049,0.0,3.1,0.0,3.4,'11111222,11111222,11111222' 
TCOON,ioos:station:TCOON:068:1,2016-09-01T07:30:00Z,27.2970,-97.4049,0.0,3.1,358.0,3.4,'11111222,11111222,11111222' 
TCOON,ioos:station:TCOON:068:1,2016-09-01T07:36:00Z,27.2970,-97.4049,0.0,3.4,350.0,3.7,'11111222,11111222,11111222' 
TCOON,ioos:station:TCOON:068:1,2016-09-01T07:42:00Z,27.2970,-97.4049,0.0,3.6,345.0,4.0,'11111222,11111222,11111222' 
TCOON,ioos:station:TCOON:068:1,2016-09-01T07:48:00Z,27.2970,-97.4049,0.0,3.9,339.0,4.2,'11111222,11111222,11111222' 
TCOON,ioos:station:TCOON:068:1,2016-09-01T07:54:00Z,27.2970,-97.4049,0.0,3.8,343.0,4.3,'11111222,11111222,11111222' 
TCOON,ioos:station:TCOON:068:1,2016-09-01T08:00:00Z,27.2970,-97.4049,0.0,4.0,344.0,4.4,'11111222,11111222,11111222' 
TCOON,ioos:station:TCOON:068:1,2016-09-01T08:06:00Z,27.2970,-97.4049,0.0,4.1,344.0,4.8,'11111222,11111222,11111222' 
TCOON,ioos:station:TCOON:068:1,2016-09-01T08:12:00Z,27.2970,-97.4049,0.0,4.0,340.0,4.5,'11111222,11111222,11111222' 
TCOON,ioos:station:TCOON:068:1,2016-09-01T08:18:00Z,27.2970,-97.4049,0.0,4.0,340.0,4.5,'1111122,1111122,1111122' 
TCOON,ioos:station:TCOON:068:1,2016-09-01T08:24:00Z,27.2970,-97.4049,0.0,4.1,336.0,4.6,'11111222,11111222,11111222' 
TCOON,ioos:station:TCOON:068:1,2016-09-01T08:30:00Z,27.2970,-97.4049,0.0,4.0,335.0,4.4,'11111222,11111222,11111222' 
TCOON,ioos:station:TCOON:068:1,2016-09-01T08:36:00Z,27.2970,-97.4049,0.0,4.0,338.0,4.4,'11111222,11111222,11111222' 
TCOON,ioos:station:TCOON:068:1,2016-09-01T08:42:00Z,27.2970,-97.4049,0.0,3.7,332.0,4.3,'11111222,11111222,11111222' 
TCOON,ioos:station:TCOON:068:1,2016-09-01T08:48:00Z,27.2970,-97.4049,0.0,3.8,331.0,4.3,'11111222,11111222,11111222' 
TCOON,ioos:station:TCOON:068:1,2016-09-01T08:54:00Z,27.2970,-97.4049,0.0,4.0,331.0,4.5,'11111222,11111222,11111222' 
TCOON,ioos:station:TCOON:068:1,2016-09-01T09:00:00Z,27.2970,-97.4049,0.0,3.7,333.0,4.4,'11111222,11111222,11111222' 
TCOON,ioos:station:TCOON:068:1,2016-09-01T09:06:00Z,27.2970,-97.4049,0.0,4.0,336.0,4.4,'11111222,11111222,11111222' 
TCOON,ioos:station:TCOON:068:1,2016-09-01T09:12:00Z,27.2970,-97.4049,0.0,4.0,332.0,4.4,'11111222,11111222,11111222' 
TCOON,ioos:station:TCOON:068:1,2016-09-01T09:18:00Z,27.2970,-97.4049,0.0,4.0,332.0,4.4,'1111122,1111122,1111122' 
TCOON,ioos:station:TCOON:068:1,2016-09-01T09:24:00Z,27.2970,-97.4049,0.0,4.1,332.0,4.4,'11111222,11111222,11111222' 
TCOON,ioos:station:TCOON:068:1,2016-09-01T09:30:00Z,27.2970,-97.4049,0.0,4.1,334.0,4.5,'11111222,11111222,11111222' 
TCOON,ioos:station:TCOON:068:1,2016-09-01T09:36:00Z,27.2970,-97.4049,0.0,3.9,335.0,4.5,'11111222,11111222,11111222' 
TCOON,ioos:station:TCOON:068:1,2016-09-01T09:42:00Z,27.2970,-97.4049,0.0,3.7,329.0,4.2,'11111222,11111222,11111222' 
TCOON,ioos:station:TCOON:068:1,2016-09-01T09:48:00Z,27.2970,-97.4049,0.0,3.4,328.0,4.0,'11111222,11111222,11111222' 
TCOON,ioos:station:TCOON:068:1,2016-09-01T09:54:00Z,27.2970,-97.4049,0.0,3.4,331.0,4.0,'11111222,11111222,11111222' 
TCOON,ioos:station:TCOON:068:1,2016-09-01T10:00:00Z,27.2970,-97.4049,0.0,3.6,335.0,4.0,'11111222,11111222,11111222' 
TCOON,ioos:station:TCOON:068:1,2016-09-01T10:06:00Z,27.2970,-97.4049,0.0,3.7,333.0,4.0,'11111222,11111222,11111222' 
TCOON,ioos:station:TCOON:068:1,2016-09-01T10:12:00Z,27.2970,-97.4049,0.0,3.8,333.0,4.1,'11111222,11111222,11111222' 
TCOON,ioos:station:TCOON:068:1,2016-09-01T10:18:00Z,27.2970,-97.4049,0.0,3.8,333.0,4.1,'1111122,1111122,1111122' 
TCOON,ioos:station:TCOON:068:1,2016-09-01T10:24:00Z,27.2970,-97.4049,0.0,4.3,328.0,4.6,'11111222,11111222,11111222' 
TCOON,ioos:station:TCOON:068:1,2016-09-01T10:30:00Z,27.2970,-97.4049,0.0,4.5,331.0,4.8,'11111222,11111222,11111222' 
TCOON,ioos:station:TCOON:068:1,2016-09-01T10:36:00Z,27.2970,-97.4049,0.0,3.9,331.0,4.5,'11111222,11111222,11111222' 
TCOON,ioos:station:TCOON:068:1,2016-09-01T10:42:00Z,27.2970,-97.4049,0.0,3.6,334.0,4.2,'11111222,11111222,11111222' 
TCOON,ioos:station:TCOON:068:1,2016-09-01T10:48:00Z,27.2970,-97.4049,0.0,3.7,341.0,4.0,'11111222,11111222,11111222' 
TCOON,ioos:station:TCOON:068:1,2016-09-01T10:54:00Z,27.2970,-97.4049,0.0,3.8,342.0,4.2,'11111222,11111222,11111222' 
TCOON,ioos:station:TCOON:068:1,2016-09-01T11:00:00Z,27.2970,-97.4049,0.0,3.8,339.0,4.1,'11111222,11111222,11111222' 
TCOON,ioos:station:TCOON:068:1,2016-09-01T11:06:00Z,27.2970,-97.4049,0.0,3.9,345.0,4.2,'11111222,11111222,11111222' 
TCOON,ioos:station:TCOON:068:1,2016-09-01T11:12:00Z,27.2970,-97.4049,0.0,4.0,343.0,4.5,'11111222,11111222,11111222' 
TCOON,ioos:station:TCOON:068:1,2016-09-01T11:18:00Z,27.2970,-97.4049,0.0,4.0,343.0,4.5,'1111122,1111122,1111122' 
TCOON,ioos:station:TCOON:068:1,2016-09-01T11:24:00Z,27.2970,-97.4049,0.0,3.7,341.0,4.2,'11111222,11111222,11111222' 
TCOON,ioos:station:TCOON:068:1,2016-09-01T11:30:00Z,27.2970,-97.4049,0.0,3.8,340.0,4.2,'11111222,11111222,11111222' 
TCOON,ioos:station:TCOON:068:1,2016-09-01T11:36:00Z,27.2970,-97.4049,0.0,3.7,342.0,4.2,'11111222,11111222,11111222' 
TCOON,ioos:station:TCOON:068:1,2016-09-01T11:42:00Z,27.2970,-97.4049,0.0,3.8,340.0,4.2,'11111222,11111222,11111222' 
TCOON,ioos:station:TCOON:068:1,2016-09-01T11:48:00Z,27.2970,-97.4049,0.0,3.4,335.0,3.8,'11111222,11111222,11111222' 
TCOON,ioos:station:TCOON:068:1,2016-09-01T11:54:00Z,27.2970,-97.4049,0.0,3.5,335.0,4.1,'11111222,11111222,11111222' 
TCOON,ioos:station:TCOON:068:1,2016-09-01T12:00:00Z,27.2970,-97.4049,0.0,3.7,338.0,4.2,'11111222,11111222,11111222' 
TCOON,ioos:station:TCOON:068:1,2016-09-01T12:06:00Z,27.2970,-97.4049,0.0,3.8,335.0,4.2,'11111222,11111222,11111222' 
TCOON,ioos:station:TCOON:068:1,2016-09-01T12:12:00Z,27.2970,-97.4049,0.0,4.0,331.0,4.3,'11111222,11111222,11111222' 
TCOON,ioos:station:TCOON:068:1,2016-09-01T12:18:00Z,27.2970,-97.4049,0.0,4.0,331.0,4.3,'1111122,1111122,1111122' 
TCOON,ioos:station:TCOON:068:1,2016-09-01T12:24:00Z,27.2970,-97.4049,0.0,4.6,318.0,5.0,'11111222,11111222,11111222' 
TCOON,ioos:station:TCOON:068:1,2016-09-01T12:30:00Z,27.2970,-97.4049,0.0,4.2,321.0,5.1,'11111222,11111222,11111222' 
TCOON,ioos:station:TCOON:068:1,2016-09-01T12:36:00Z,27.2970,-97.4049,0.0,4.2,316.0,5.0,'11111222,11111222,11111222' 
TCOON,ioos:station:TCOON:068:1,2016-09-01T12:42:00Z,27.2970,-97.4049,0.0,4.0,317.0,4.7,'11111222,11111222,11111222' 
TCOON,ioos:station:TCOON:068:1,2016-09-01T12:48:00Z,27.2970,-97.4049,0.0,3.7,319.0,4.4,'11111222,11111222,11111222' 
TCOON,ioos:station:TCOON:068:1,2016-09-01T12:54:00Z,27.2970,-97.4049,0.0,3.9,316.0,4.3,'11111222,11111222,11111222' 
TCOON,ioos:station:TCOON:068:1,2016-09-01T13:00:00Z,27.2970,-97.4049,0.0,3.9,313.0,4.8,'11111222,11111222,11111222' 
TCOON,ioos:station:TCOON:068:1,2016-09-01T13:06:00Z,27.2970,-97.4049,0.0,3.8,312.0,4.1,'11111222,11111222,11111222' 
TCOON,ioos:station:TCOON:068:1,2016-09-01T13:12:00Z,27.2970,-97.4049,0.0,3.6,317.0,4.2,'11111222,11111222,11111222' 
TCOON,ioos:station:TCOON:068:1,2016-09-01T13:18:00Z,27.2970,-97.4049,0.0,3.6,317.0,4.2,'1111122,1111122,1111122' 
TCOON,ioos:station:TCOON:068:1,2016-09-01T13:24:00Z,27.2970,-97.4049,0.0,3.2,324.0,3.6,'11111222,11111222,11111222' 
TCOON,ioos:station:TCOON:068:1,2016-09-01T13:30:00Z,27.2970,-97.4049,0.0,3.2,328.0,3.7,'11111222,11111222,11111222' 
TCOON,ioos:station:TCOON:068:1,2016-09-01T13:36:00Z,27.2970,-97.4049,0.0,3.3,324.0,3.6,'11111222,11111222,11111222' 
TCOON,ioos:station:TCOON:068:1,2016-09-01T13:42:00Z,27.2970,-97.4049,0.0,3.2,324.0,3.8,'11111222,11111222,11111222' 
TCOON,ioos:station:TCOON:068:1,2016-09-01T13:48:00Z,27.2970,-97.4049,0.0,3.0,322.0,3.6,'11111222,11111222,11111222' 
TCOON,ioos:station:TCOON:068:1,2016-09-01T13:54:00Z,27.2970,-97.4049,0.0,2.7,330.0,3.6,'11111222,11111222,11111222' 
TCOON,ioos:station:TCOON:068:1,2016-09-01T14:00:00Z,27.2970,-97.4049,0.0,2.7,334.0,3.4,'11111222,11111222,11111222' 
TCOON,ioos:station:TCOON:068:1,2016-09-01T14:06:00Z,27.2970,-97.4049,0.0,2.8,324.0,3.4,'11111222,11111222,11111222' 
TCOON,ioos:station:TCOON:068:1,2016-09-01T14:12:00Z,27.2970,-97.4049,0.0,2.8,330.0,3.3,'11111222,11111222,11111222' 
TCOON,ioos:station:TCOON:068:1,2016-09-01T14:18:00Z,27.2970,-97.4049,0.0,2.7,335.0,3.4,'11111222,11111222,11111222' 
TCOON,ioos:station:TCOON:068:1,2016-09-01T14:24:00Z,27.2970,-97.4049,0.0,3.0,343.0,3.4,'11111222,11111222,11111222' 
TCOON,ioos:station:TCOON:068:1,2016-09-01T14:30:00Z,27.2970,-97.4049,0.0,2.6,346.0,3.2,'11111222,11111222,11111222' 
TCOON,ioos:station:TCOON:068:1,2016-09-01T14:36:00Z,27.2970,-97.4049,0.0,2.8,345.0,3.5,'11111222,11111222,11111222' 
TCOON,ioos:station:TCOON:068:1,2016-09-01T14:42:00Z,27.2970,-97.4049,0.0,2.5,337.0,3.4,'11111222,11111222,11111222' 
TCOON,ioos:station:TCOON:068:1,2016-09-01T14:48:00Z,27.2970,-97.4049,0.0,3.0,352.0,3.4,'11111222,11111222,11111222' 
TCOON,ioos:station:TCOON:068:1,2016-09-01T14:54:00Z,27.2970,-97.4049,0.0,2.5,355.0,3.4,'11111222,11111222,11111222' 
TCOON,ioos:station:TCOON:068:1,2016-09-01T15:00:00Z,27.2970,-97.4049,0.0,2.7,6.0,3.1,'11111222,11111222,11111222' 
TCOON,ioos:station:TCOON:068:1,2016-09-01T15:06:00Z,27.2970,-97.4049,0.0,2.5,11.0,3.5,'11111222,11111222,11111222' 
TCOON,ioos:station:TCOON:068:1,2016-09-01T15:12:00Z,27.2970,-97.4049,0.0,2.4,15.0,3.0,'11111222,11111222,11111222' 
TCOON,ioos:station:TCOON:068:1,2016-09-01T15:18:00Z,27.2970,-97.4049,0.0,2.4,36.0,2.8,'11111222,11111222,11111222' 
TCOON,ioos:station:TCOON:068:1,2016-09-01T15:24:00Z,27.2970,-97.4049,0.0,2.3,41.0,3.0,'11111222,11111222,11111222' 
TCOON,ioos:station:TCOON:068:1,2016-09-01T15:30:00Z,27.2970,-97.4049,0.0,2.4,40.0,3.2,'11111222,11111222,11111222' 
TCOON,ioos:station:TCOON:068:1,2016-09-01T15:36:00Z,27.2970,-97.4049,0.0,2.6,48.0,3.4,'11111222,11111222,11111222' 
TCOON,ioos:station:TCOON:068:1,2016-09-01T15:42:00Z,27.2970,-97.4049,0.0,2.4,22.0,3.4,'11111222,11111222,11111222' 
TCOON,ioos:station:TCOON:068:1,2016-09-01T15:48:00Z,27.2970,-97.4049,0.0,3.1,23.0,3.9,'11111222,11111222,11111222' 
TCOON,ioos:station:TCOON:068:1,2016-09-01T15:54:00Z,27.2970,-97.4049,0.0,3.1,33.0,4.2,'11111222,11111222,11111222' 
TCOON,ioos:station:TCOON:068:1,2016-09-01T16:00:00Z,27.2970,-97.4049,0.0,3.7,35.0,4.5,'11111222,11111222,11111222' 
TCOON,ioos:station:TCOON:068:1,2016-09-01T16:06:00Z,27.2970,-97.4049,0.0,3.1,36.0,4.4,'11111222,11111222,11111222' 
TCOON,ioos:station:TCOON:068:1,2016-09-01T16:12:00Z,27.2970,-97.4049,0.0,3.5,40.0,4.1,'11111222,11111222,11111222' 
TCOON,ioos:station:TCOON:068:1,2016-09-01T16:18:00Z,27.2970,-97.4049,0.0,3.4,40.0,3.9,'11111222,11111222,11111222' 
TCOON,ioos:station:TCOON:068:1,2016-09-01T16:24:00Z,27.2970,-97.4049,0.0,3.4,43.0,4.0,'11111222,11111222,11111222' 
TCOON,ioos:station:TCOON:068:1,2016-09-01T16:30:00Z,27.2970,-97.4049,0.0,3.5,44.0,4.3,'11111222,11111222,11111222' 
TCOON,ioos:station:TCOON:068:1,2016-09-01T16:36:00Z,27.2970,-97.4049,0.0,4.0,41.0,4.5,'11111222,11111222,11111222' 
TCOON,ioos:station:TCOON:068:1,2016-09-01T16:42:00Z,27.2970,-97.4049,0.0,3.7,42.0,4.2,'11111222,11111222,11111222' 
TCOON,ioos:station:TCOON:068:1,2016-09-01T16:48:00Z,27.2970,-97.4049,0.0,4.0,43.0,4.6,'11111222,11111222,11111222' 
TCOON,ioos:station:TCOON:068:1,2016-09-01T16:54:00Z,27.2970,-97.4049,0.0,3.6,47.0,4.4,'11111222,11111222,11111222' 
TCOON,ioos:station:TCOON:068:1,2016-09-01T17:00:00Z,27.2970,-97.4049,0.0,4.0,42.0,4.7,'11111222,11111222,11111222' 
TCOON,ioos:station:TCOON:068:1,2016-09-01T17:06:00Z,27.2970,-97.4049,0.0,3.5,26.0,4.6,'11111222,11111222,11111222' 
TCOON,ioos:station:TCOON:068:1,2016-09-01T17:12:00Z,27.2970,-97.4049,0.0,4.2,20.0,4.7,'11111222,11111222,11111222' 
TCOON,ioos:station:TCOON:068:1,2016-09-01T17:18:00Z,27.2970,-97.4049,0.0,4.3,21.0,5.0,'11111222,11111222,11111222' 
TCOON,ioos:station:TCOON:068:1,2016-09-01T17:24:00Z,27.2970,-97.4049,0.0,4.0,22.0,4.8,'11111222,11111222,11111222' 
TCOON,ioos:station:TCOON:068:1,2016-09-01T17:30:00Z,27.2970,-97.4049,0.0,4.5,23.0,5.3,'11111222,11111222,11111222' 
TCOON,ioos:station:TCOON:068:1,2016-09-01T17:36:00Z,27.2970,-97.4049,0.0,4.9,25.0,5.8,'11111222,11111222,11111222' 
TCOON,ioos:station:TCOON:068:1,2016-09-01T17:42:00Z,27.2970,-97.4049,0.0,5.0,21.0,5.9,'11111222,11111222,11111222' 
TCOON,ioos:station:TCOON:068:1,2016-09-01T17:48:00Z,27.2970,-97.4049,0.0,4.7,25.0,5.7,'11111222,11111222,11111222' 
TCOON,ioos:station:TCOON:068:1,2016-09-01T17:54:00Z,27.2970,-97.4049,0.0,4.5,25.0,5.3,'11111222,11111222,11111222' 
TCOON,ioos:station:TCOON:068:1,2016-09-01T18:00:00Z,27.2970,-97.4049,0.0,4.8,23.0,5.5,'11111222,11111222,11111222' 
TCOON,ioos:station:TCOON:068:1,2016-09-01T18:06:00Z,27.2970,-97.4049,0.0,4.4,26.0,5.5,'11111222,11111222,11111222' 
TCOON,ioos:station:TCOON:068:1,2016-09-01T18:12:00Z,27.2970,-97.4049,0.0,3.4,26.0,4.9,'11111222,11111222,11111222' 
TCOON,ioos:station:TCOON:068:1,2016-09-01T18:18:00Z,27.2970,-97.4049,0.0,3.0,43.0,4.7,'11111222,11111222,11111222' 
TCOON,ioos:station:TCOON:068:1,2016-09-01T18:24:00Z,27.2970,-97.4049,0.0,2.5,43.0,3.4,'11111222,11111222,11111222' 
TCOON,ioos:station:TCOON:068:1,2016-09-01T18:30:00Z,27.2970,-97.4049,0.0,0.7,272.0,2.5,'11111222,11111222,11111222' 
TCOON,ioos:station:TCOON:068:1,2016-09-01T18:36:00Z,27.2970,-97.4049,0.0,0.6,331.0,1.7,'11111222,11111222,11111222' 
TCOON,ioos:station:TCOON:068:1,2016-09-01T18:42:00Z,27.2970,-97.4049,0.0,1.1,54.0,2.1,'11111222,11111222,11111222' 
TCOON,ioos:station:TCOON:068:1,2016-09-01T18:48:00Z,27.2970,-97.4049,0.0,0.8,325.0,2.3,'11111222,11111222,11111222' 
TCOON,ioos:station:TCOON:068:1,2016-09-01T18:54:00Z,27.2970,-97.4049,0.0,2.0,35.0,3.1,'11111222,11111222,11111222' 
TCOON,ioos:station:TCOON:068:1,2016-09-01T19:00:00Z,27.2970,-97.4049,0.0,2.9,26.0,5.1,'11111222,11111222,11111222' 
TCOON,ioos:station:TCOON:068:1,2016-09-01T19:06:00Z,27.2970,-97.4049,0.0,4.3,70.0,5.6,'11111222,11111222,11111222' 
TCOON,ioos:station:TCOON:068:1,2016-09-01T19:12:00Z,27.2970,-97.4049,0.0,5.6,75.0,6.4,'11111222,11111222,11111222' 
TCOON,ioos:station:TCOON:068:1,2016-09-01T19:18:00Z,27.2970,-97.4049,0.0,5.2,77.0,6.1,'11111222,11111222,11111222' 
TCOON,ioos:station:TCOON:068:1,2016-09-01T19:24:00Z,27.2970,-97.4049,0.0,5.8,76.0,6.8,'11111222,11111222,11111222' 
TCOON,ioos:station:TCOON:068:1,2016-09-01T19:30:00Z,27.2970,-97.4049,0.0,5.7,74.0,6.7,'11111222,11111222,11111222' 
TCOON,ioos:station:TCOON:068:1,2016-09-01T19:36:00Z,27.2970,-97.4049,0.0,5.6,76.0,6.4,'11111222,11111222,11111222' 
TCOON,ioos:station:TCOON:068:1,2016-09-01T19:42:00Z,27.2970,-97.4049,0.0,5.6,76.0,6.4,'11111222,11111222,11111222' 
TCOON,ioos:station:TCOON:068:1,2016-09-01T19:48:00Z,27.2970,-97.4049,0.0,5.8,77.0,6.5,'11111222,11111222,11111222' 
TCOON,ioos:station:TCOON:068:1,2016-09-01T19:54:00Z,27.2970,-97.4049,0.0,5.7,76.0,7.1,'11111222,11111222,11111222' 
TCOON,ioos:station:TCOON:068:1,2016-09-01T20:00:00Z,27.2970,-97.4049,0.0,5.3,78.0,7.0,'11111222,11111222,11111222' 
TCOON,ioos:station:TCOON:068:1,2016-09-01T20:06:00Z,27.2970,-97.4049,0.0,5.2,74.0,6.1,'11111222,11111222,11111222' 
TCOON,ioos:station:TCOON:068:1,2016-09-01T20:12:00Z,27.2970,-97.4049,0.0,5.1,82.0,5.8,'11111222,11111222,11111222' 
TCOON,ioos:station:TCOON:068:1,2016-09-01T20:18:00Z,27.2970,-97.4049,0.0,5.1,82.0,5.8,'1111122,1111122,1111122' 
TCOON,ioos:station:TCOON:068:1,2016-09-01T20:24:00Z,27.2970,-97.4049,0.0,4.7,73.0,5.9,'11111222,11111222,11111222' 